This is the latest recevied weather packets stored in our database for station/object AE5HO. If no packets are shown the sender has not sent any weather packets the latest 10 day(s).
| Time | Temp. | Humidity | Pressure | Rain* | Wind** | Luminosity | Snow |
|---|---|---|---|---|---|---|---|
| 1787968647 | 33.89° C | 43% | 1015.6 hPa | 0 mm | - | 0 W/m² | - |
| 1787968341 | 33.89° C | 42% | 1015.4 hPa | 0 mm | - | 0 W/m² | - |
| 1787968036 | 34.44° C | 42% | 1015.5 hPa | 0 mm | - | 0 W/m² | - |
| 1787967735 | 34.44° C | 41% | 1015.5 hPa | 0 mm | - | 0 W/m² | - |
| 1787967433 | 35° C | 40% | 1015.5 hPa | 0 mm | - | 0 W/m² | - |
| 1787967128 | 35° C | 39% | 1015.3 hPa | 0 mm | - | 0 W/m² | - |
| 1787966824 | 35° C | 39% | 1015.3 hPa | 0 mm | - | 0 W/m² | - |
| 1787966520 | 35° C | 39% | 1015.2 hPa | 0 mm | - | 0 W/m² | - |
| 1787966219 | 35° C | 38% | 1015 hPa | 0 mm | - | 0 W/m² | - |
| 1787965914 | 35.56° C | 38% | 1015.1 hPa | 0 mm | - | 0 W/m² | - |
| 1787965610 | 35.56° C | 37% | 1014.9 hPa | 0 mm | - | 0 W/m² | - |
| 1787965309 | 35.56° C | 37% | 1015 hPa | 0 mm | - | 0 W/m² | - |
| 1787965008 | 35.56° C | 38% | 1014.9 hPa | 0 mm | - | 0 W/m² | - |
| 1787964708 | 36.11° C | 37% | 1015.1 hPa | 0 mm | - | 0 W/m² | - |
| 1787964403 | 36.11° C | 37% | 1014.9 hPa | 0 mm | - | 1 W/m² | - |
| 1787964098 | 36.11° C | 37% | 1015.1 hPa | 0 mm | - | 4 W/m² | - |
| 1787963798 | 36.67° C | 37% | 1014.9 hPa | 0 mm | - | 6 W/m² | - |
| 1787963492 | 36.67° C | 37% | 1014.9 hPa | 0 mm | - | 9 W/m² | - |
| 1787963188 | 37.22° C | 36% | 1014.8 hPa | 0 mm | - | 12 W/m² | - |
| 1787962886 | 37.78° C | 36% | 1014.8 hPa | 0 mm | - | 23 W/m² | - |
| 1787962586 | 37.78° C | 36% | 1014.7 hPa | 0 mm | - | 29 W/m² | - |
| 1787962286 | 37.78° C | 35% | 1014.5 hPa | 0 mm | - | 40 W/m² | - |
| 1787961981 | 37.78° C | 36% | 1014.7 hPa | 0 mm | - | 28 W/m² | - |
| 1787961675 | 37.78° C | 36% | 1014.6 hPa | 0 mm | - | 26 W/m² | - |
| 1787961375 | 37.78° C | 37% | 1014.3 hPa | 0 mm | - | 24 W/m² | - |
* Rain latest hour (hover to see other rain measurements)
** Current wind speed in m/s (hover to see current wind gust speed)